TAIP08 YCBG-YCBG

Flight info

Callsign TAIP08
Flight time 0h 8m
Altitude 2500
Route VFR
Aircraft EC35/L-VGD/C

Departure

Time 2026-04-23 10:32
Airport Cambridge Aerodrome (YCBG)

Arrival

Time 2026-04-23 10:40
Airport Cambridge Aerodrome (YCBG)
Time Latitude Longitude Altitude Speed Heading
2026-04-23 10:11 -42.82935 147.47686 -43 ft 0 kts 343°
2026-04-23 10:12 -42.82933 147.47686 -43 ft 0 kts 347°
2026-04-23 10:31 -42.82925 147.47678 61 ft 2 kts 352°
2026-04-23 10:31 -42.82894 147.47683 87 ft 13 kts 303°
2026-04-23 10:31 -42.82872 147.47472 221 ft 31 kts 289°
2026-04-23 10:31 -42.82794 147.47117 415 ft 47 kts 289°
2026-04-23 10:32 -42.82657 147.46658 526 ft 53 kts 291°
2026-04-23 10:32 -42.82522 147.46198 513 ft 52 kts 291°
2026-04-23 10:32 -42.82408 147.45719 573 ft 57 kts 280°
2026-04-23 10:32 -42.82546 147.45159 719 ft 72 kts 230°
2026-04-23 10:33 -42.83025 147.44873 822 ft 82 kts 184°
2026-04-23 10:33 -42.83582 147.45134 901 ft 90 kts 141°
2026-04-23 10:33 -42.84052 147.45707 908 ft 90 kts 137°
2026-04-23 10:33 -42.84330 147.46413 842 ft 90 kts 101°
2026-04-23 10:34 -42.84459 147.47224 829 ft 81 kts 97°
2026-04-23 10:34 -42.84505 147.47925 744 ft 73 kts 91°
2026-04-23 10:34 -42.84535 147.48625 664 ft 75 kts 90°
2026-04-23 10:34 -42.84462 147.49317 634 ft 74 kts 75°
2026-04-23 10:35 -42.84191 147.49873 618 ft 72 kts 26°
2026-04-23 10:35 -42.83726 147.50099 610 ft 71 kts
2026-04-23 10:35 -42.83299 147.49857 479 ft 69 kts 305°
2026-04-23 10:35 -42.83135 147.49274 326 ft 63 kts 287°
2026-04-23 10:36 -42.83018 147.48658 204 ft 68 kts 286°
2026-04-23 10:36 -42.82901 147.48037 131 ft 67 kts 287°
2026-04-23 10:36 -42.82767 147.47345 237 ft 81 kts 287°
2026-04-23 10:36 -42.82636 147.46619 375 ft 81 kts 280°
2026-04-23 10:37 -42.82502 147.45861 479 ft 82 kts 277°
2026-04-23 10:37 -42.82695 147.45162 495 ft 81 kts 224°
2026-04-23 10:37 -42.83207 147.44840 503 ft 82 kts 199°
2026-04-23 10:37 -42.83764 147.44679 506 ft 84 kts 176°
2026-04-23 10:38 -42.84246 147.45080 519 ft 84 kts 124°
2026-04-23 10:38 -42.84441 147.45835 617 ft 84 kts 104°
2026-04-23 10:38 -42.84590 147.46604 647 ft 83 kts 104°
2026-04-23 10:38 -42.84733 147.47368 662 ft 83 kts 104°
2026-04-23 10:39 -42.84876 147.48133 671 ft 83 kts 104°
2026-04-23 10:39 -42.84921 147.48909 674 ft 83 kts 72°
2026-04-23 10:39 -42.84547 147.49458 673 ft 82 kts 22°
2026-04-23 10:39 -42.84015 147.49690 584 ft 77 kts
2026-04-23 10:40 -42.83527 147.49820 532 ft 71 kts
2026-04-23 10:40 -42.83102 147.49575 414 ft 63 kts 301°
2026-04-23 10:40 -42.83026 147.49075 212 ft 52 kts 275°
2026-04-23 10:40 -42.83007 147.48605 146 ft 43 kts 280°
2026-04-23 10:41 -42.82963 147.48264 110 ft 31 kts 283°
2026-04-23 10:41 -42.82934 147.48024 93 ft 25 kts 290°
2026-04-23 10:41 -42.82891 147.47854 84 ft 11 kts 284°
2026-04-23 10:41 -42.82860 147.47770 81 ft 10 kts 249°
2026-04-23 10:42 -42.82876 147.47698 74 ft 3 kts 246°
2026-04-23 10:42 -42.82881 147.47706 82 ft 0 kts 246°
2026-04-23 10:42 -42.82882 147.47705 74 ft 0 kts 246°
2026-04-23 10:42 -42.82882 147.47706 67 ft 1 kts 231°
2026-04-23 10:43 -42.82883 147.47704 59 ft 1 kts 287°
2026-04-23 10:43 -42.82882 147.47705 64 ft 0 kts 288°
2026-04-23 10:45 -42.82851 147.47625 106 ft 27 kts 287°
2026-04-23 10:45 -42.82758 147.47342 325 ft 33 kts 272°
2026-04-23 10:45 -42.82756 147.47036 419 ft 33 kts 239°
2026-04-23 10:45 -42.82866 147.46748 466 ft 36 kts 198°
2026-04-23 10:46 -42.83096 147.46553 481 ft 45 kts 130°
2026-04-23 10:46 -42.83443 147.46600 488 ft 51 kts 131°
2026-04-23 10:46 -42.83745 147.46987 492 ft 70 kts 107°
2026-04-23 10:46 -42.83949 147.47572 498 ft 66 kts 92°
2026-04-23 10:47 -42.84031 147.48182 499 ft 67 kts 90°
2026-04-23 10:47 -42.84074 147.48805 500 ft 64 kts 89°
2026-04-23 10:47 -42.83894 147.49321 413 ft 61 kts 27°
2026-04-23 10:47 -42.83493 147.49464 315 ft 60 kts
2026-04-23 10:48 -42.83140 147.49253 272 ft 58 kts 301°
2026-04-23 10:48 -42.83019 147.48654 165 ft 79 kts 281°
2026-04-23 10:48 -42.82856 147.47916 113 ft 80 kts 284°
2026-04-23 10:48 -42.82741 147.47173 137 ft 81 kts 283°
2026-04-23 10:49 -42.82630 147.46408 498 ft 84 kts 283°
2026-04-23 10:49 -42.82684 147.45614 781 ft 87 kts 244°
2026-04-23 10:49 -42.83136 147.45104 908 ft 86 kts 201°
2026-04-23 10:49 -42.83713 147.44885 959 ft 86 kts 192°
2026-04-23 10:50 -42.84292 147.44975 979 ft 86 kts 149°
2026-04-23 10:50 -42.84617 147.45627 991 ft 85 kts 98°
2026-04-23 10:50 -42.84643 147.46425 979 ft 84 kts 88°
2026-04-23 10:50 -42.84638 147.47222 834 ft 84 kts 88°
2026-04-23 10:51 -42.84630 147.48026 771 ft 86 kts 89°
2026-04-23 10:51 -42.84623 147.48840 744 ft 86 kts 89°
2026-04-23 10:51 -42.84619 147.49657 733 ft 86 kts 89°
2026-04-23 10:51 -42.84603 147.50475 725 ft 86 kts 78°
2026-04-23 10:52 -42.84257 147.51104 723 ft 85 kts 28°
2026-04-23 10:52 -42.83690 147.51261 720 ft 84 kts 349°
2026-04-23 10:52 -42.83196 147.50877 713 ft 85 kts 307°
2026-04-23 10:52 -42.83011 147.50013 462 ft 102 kts 274°
2026-04-23 10:53 -42.82991 147.49381 353 ft 100 kts 271°
2026-04-23 10:53 -42.82879 147.48109 184 ft 110 kts 286°
2026-04-23 10:53 -42.82747 147.47063 196 ft 106 kts 277°
2026-04-23 10:53 -42.82798 147.46190 236 ft 85 kts 246°
2026-04-23 10:54 -42.83275 147.45684 478 ft 92 kts 201°
2026-04-23 10:54 -42.83707 147.45661 618 ft 94 kts 170°
2026-04-23 10:54 -42.84288 147.46438 740 ft 93 kts 102°
2026-04-23 10:54 -42.84320 147.47305 773 ft 91 kts 89°
2026-04-23 10:55 -42.84322 147.47889 782 ft 91 kts 89°
2026-04-23 10:55 -42.84321 147.48764 788 ft 97 kts 87°
2026-04-23 10:55 -42.83740 147.49137 331 ft 116 kts 348°
2026-04-23 10:55 -42.83101 147.48726 202 ft 84 kts 293°
2026-04-23 10:56 -42.82925 147.48127 141 ft 58 kts 286°
2026-04-23 10:56 -42.82865 147.47762 71 ft 18 kts 284°
2026-04-23 10:56 -42.82848 147.47647 64 ft 12 kts 284°
2026-04-23 10:56 -42.82829 147.47537 77 ft 11 kts 284°
2026-04-23 10:57 -42.82825 147.47514 68 ft 0 kts 284°
2026-04-23 10:57 -42.82825 147.47515 74 ft 0 kts 284°
2026-04-23 10:57 -42.82810 147.47474 92 ft 16 kts 283°
2026-04-23 10:57 -42.82744 147.47215 199 ft 35 kts 280°
2026-04-23 10:58 -42.82734 147.46856 327 ft 47 kts 257°
2026-04-23 10:58 -42.82892 147.46405 318 ft 56 kts 218°
2026-04-23 10:58 -42.83268 147.46349 309 ft 59 kts 160°
2026-04-23 10:58 -42.83522 147.46769 305 ft 60 kts 106°
2026-04-23 10:59 -42.83633 147.47312 303 ft 60 kts 104°
2026-04-23 10:59 -42.83744 147.47883 300 ft 67 kts 103°
2026-04-23 10:59 -42.83666 147.48471 299 ft 64 kts 45°
2026-04-23 10:59 -42.83277 147.48622 298 ft 60 kts 340°
2026-04-23 11:00 -42.83021 147.48216 204 ft 63 kts 290°
2026-04-23 11:00 -42.82844 147.47561 192 ft 77 kts 290°
2026-04-23 11:00 -42.82800 147.46862 404 ft 77 kts 253°
2026-04-23 11:00 -42.83175 147.46371 465 ft 79 kts 199°
2026-04-23 11:01 -42.83702 147.46505 575 ft 81 kts 146°
2026-04-23 11:01 -42.84159 147.46970 659 ft 91 kts 155°
2026-04-23 11:01 -42.84844 147.47344 776 ft 114 kts 158°
2026-04-23 11:01 -42.85580 147.47649 839 ft 111 kts 170°
2026-04-23 11:02 -42.86312 147.47768 878 ft 100 kts 174°
2026-04-23 11:02 -42.87009 147.47871 935 ft 102 kts 174°
2026-04-23 11:02 -42.87718 147.47962 1090 ft 103 kts 174°
2026-04-23 11:02 -42.88432 147.48044 1160 ft 103 kts 174°
2026-04-23 11:03 -42.89142 147.47985 1187 ft 104 kts 191°
2026-04-23 11:03 -42.89855 147.47890 1200 ft 103 kts 181°
2026-04-23 11:03 -42.90573 147.47853 1207 ft 103 kts 181°
2026-04-23 11:03 -42.91289 147.47821 1207 ft 104 kts 181°
2026-04-23 11:04 -42.91981 147.47579 1099 ft 104 kts 212°
2026-04-23 11:04 -42.92400 147.46876 745 ft 101 kts 251°
2026-04-23 11:04 -42.92394 147.45957 419 ft 97 kts 295°
2026-04-23 11:04 -42.91936 147.45324 292 ft 94 kts 334°
2026-04-23 11:05 -42.91385 147.45144 236 ft 70 kts 357°
2026-04-23 11:05 -42.91017 147.45333 317 ft 50 kts 60°
2026-04-23 11:05 -42.91005 147.45766 545 ft 50 kts 108°
2026-04-23 11:05 -42.91116 147.46235 635 ft 53 kts 109°
2026-04-23 11:06 -42.91445 147.46910 861 ft 45 kts 223°
2026-04-23 11:06 -42.91317 147.46474 882 ft 68 kts 307°
2026-04-23 11:06 -42.90951 147.45996 588 ft 77 kts 296°
2026-04-23 11:07 -42.90655 147.45362 205 ft 81 kts 275°
2026-04-23 11:07 -42.90827 147.44802 148 ft 69 kts 192°
2026-04-23 11:07 -42.91235 147.45074 150 ft 79 kts 128°
2026-04-23 11:07 -42.91381 147.45799 249 ft 70 kts 130°
2026-04-23 11:08 -42.91681 147.46078 561 ft 59 kts 165°
2026-04-23 11:08 -42.92120 147.46171 594 ft 65 kts 183°
2026-04-23 11:08 -42.92576 147.46151 592 ft 72 kts 184°
2026-04-23 11:08 -42.93125 147.46105 600 ft 83 kts 184°
2026-04-23 11:09 -42.93738 147.46049 609 ft 91 kts 184°
2026-04-23 11:09 -42.94364 147.45996 610 ft 90 kts 184°
2026-04-23 11:09 -42.94987 147.45948 609 ft 89 kts 184°
2026-04-23 11:09 -42.95610 147.45898 609 ft 89 kts 184°
2026-04-23 11:10 -42.96236 147.46002 613 ft 94 kts 166°
2026-04-23 11:10 -42.96848 147.46291 644 ft 92 kts 150°
2026-04-23 11:10 -42.97387 147.46753 642 ft 92 kts 141°
2026-04-23 11:10 -42.97770 147.47436 647 ft 91 kts 113°
2026-04-23 11:11 -42.97794 147.48273 650 ft 90 kts 67°
2026-04-23 11:11 -42.97379 147.48872 652 ft 87 kts 31°
2026-04-23 11:11 -42.96812 147.49143 671 ft 87 kts 13°
2026-04-23 11:11 -42.96217 147.49316 687 ft 88 kts
2026-04-23 11:12 -42.95614 147.49402 693 ft 87 kts
2026-04-23 11:12 -42.95011 147.49480 694 ft 87 kts
2026-04-23 11:12 -42.94409 147.49556 697 ft 87 kts
2026-04-23 11:12 -42.93801 147.49635 699 ft 88 kts
2026-04-23 11:13 -42.93194 147.49712 702 ft 87 kts
2026-04-23 11:13 -42.92591 147.49787 693 ft 87 kts
2026-04-23 11:13 -42.91992 147.49867 695 ft 88 kts
2026-04-23 11:13 -42.91382 147.49949 698 ft 88 kts
2026-04-23 11:14 -42.90770 147.50032 701 ft 88 kts
2026-04-23 11:14 -42.90162 147.49968 704 ft 87 kts 352°
2026-04-23 11:14 -42.89556 147.49870 705 ft 88 kts 353°
2026-04-23 11:14 -42.88949 147.49772 680 ft 89 kts 353°
2026-04-23 11:15 -42.88323 147.49663 680 ft 92 kts 353°
2026-04-23 11:15 -42.87689 147.49552 713 ft 95 kts 354°
2026-04-23 11:15 -42.86927 147.49437 741 ft 122 kts 353°
2026-04-23 11:15 -42.86091 147.49307 768 ft 120 kts 350°
2026-04-23 11:16 -42.85253 147.49278 797 ft 121 kts
2026-04-23 11:16 -42.84453 147.49483 839 ft 111 kts 12°
2026-04-23 11:16 -42.83699 147.49689 839 ft 112 kts 12°
2026-04-23 11:16 -42.82999 147.49486 874 ft 112 kts 294°
2026-04-23 11:17 -42.82648 147.48511 709 ft 117 kts 281°
2026-04-23 11:17 -42.82393 147.47486 543 ft 113 kts 275°
2026-04-23 11:17 -42.82254 147.46431 503 ft 113 kts 259°
2026-04-23 11:17 -42.82522 147.45468 482 ft 109 kts 221°
2026-04-23 11:18 -42.83136 147.45001 472 ft 101 kts 182°
2026-04-23 11:18 -42.83811 147.45222 467 ft 103 kts 144°
2026-04-23 11:18 -42.84230 147.46008 468 ft 105 kts 109°
2026-04-23 11:18 -42.84375 147.46980 463 ft 106 kts 94°
2026-04-23 11:19 -42.84314 147.47960 463 ft 105 kts 86°
2026-04-23 11:19 -42.84219 147.48946 473 ft 101 kts 85°
2026-04-23 11:19 -42.83928 147.49679 473 ft 81 kts 38°
2026-04-23 11:19 -42.83447 147.49756 464 ft 65 kts 340°
2026-04-23 11:20 -42.83092 147.49434 459 ft 63 kts 326°
2026-04-23 11:20 -42.83057 147.48716 173 ft 93 kts 279°
2026-04-23 11:20 -42.82938 147.48097 47 ft 29 kts 288°
2026-04-23 11:20 -42.82934 147.48022 68 ft 4 kts 291°
2026-04-23 11:21 -42.82929 147.48017 89 ft 1 kts 291°
2026-04-23 11:21 -42.82903 147.48019 845 ft 5 kts 290°
2026-04-23 11:21 -42.82904 147.48021 1446 ft 0 kts 290°
2026-04-23 11:22 -42.82856 147.47918 2234 ft 48 kts 298°
2026-04-23 11:22 -42.82713 147.47440 1343 ft 37 kts 184°
2026-04-23 11:22 -42.82701 147.47421 36 ft 0 kts 205°